Location: San Vito
(41.8833°N, 12.9833°E)
Time: 04:56:16
(UTC+00:00)

NOSS 3-3 (A) - Pass Details

Date: 17 November 2019
Orbit: 848 x 1364 km, 63.4° (Epoch: 05 December)

Event Time Altitude Azimuth Distance (km) Brightness Sun altitude
Exits shadow 03:04:17 54° 136° (SE) 1,112 4.4 -32.5°
Maximum altitude 03:04:44 55° 118° (ESE) 1,102 4.4 -32.4°
Drops below altitude 10° 03:11:00 10° 43° (NE) 2,787 6.9 -31.3°
Sets 03:13:48 0° 39° (NE) 3,821 7.6 -30.8°
